Theta_e
335 336 335 335 334 333 333 333 332 332 333 333 334 335 334 335 335 335 334 333 333 333 333 333 333 333 333 333 334 333 333 334 333 334 333 333 333 332 332 333 333 333 333 333 333 333 332 332 332 332 332 332 332 332 331 331 331 331 330 330 329 328 328 328 328 329 329 329 329 329 328 328 328 327 326 325 326 327 326 327 327 327 327 327 327
334 335 336 336 335 334 334 334 333 333 333 333 333 334 334 335 336 335 335 334 333 333 333 333 334 334 334 334 334 334 334 334 334 334 333 333 333 333 333 333 333 333 332 333 332 332 332 331 332 332 331 331 332 331 331 331 331 331 330 329 329 329 328 328 328 328 329 329 329 328 327 327 327 327 328 327 327 326 326 326 327 327 326 326 327
334 334 335 337 336 334 334 334 333 334 334 334 334 334 335 336 336 336 335 334 333 333 333 333 334 334 334 334 334 334 334 334 334 334 333 333 333 333 333 333 332 332 332 332 332 332 332 332 331 332 331 331 331 331 330 330 330 330 330 329 329 329 328 328 328 329 329 329 328 329 328 328 327 326 327 327 327 326 324 325 326 327 327 327 327
335 334 335 337 338 336 335 334 334 334 334 334 334 335 335 336 337 336 335 334 334 333 334 334 334 334 334 334 333 333 333 333 333 333 333 333 334 334 333 333 332 333 333 332 332 332 332 332 331 332 331 330 330 330 330 330 330 330 329 329 329 328 328 328 328 328 329 329 329 328 328 329 329 328 326 326 327 326 325 325 326 327 327 327 327
335 335 336 338 340 338 336 335 334 334 334 334 335 336 336 337 337 336 335 335 334 333 333 334 334 334 333 333 332 332 333 333 333 333 334 333 334 334 333 333 333 333 333 332 332 332 332 331 331 331 331 330 330 330 329 329 329 330 329 329 329 329 328 328 328 328 328 329 329 328 328 329 329 327 327 326 326 327 326 326 326 326 327 327 327
335 336 337 339 341 339 338 336 334 334 335 335 335 336 337 337 337 336 335 335 334 333 334 333 333 333 332 332 332 332 333 333 333 333 333 334 333 333 333 333 333 332 332 332 332 332 331 331 331 331 330 330 329 329 329 328 329 329 329 329 329 329 329 328 328 328 328 328 328 328 328 329 328 327 327 327 326 326 326 326 326 326 327 326 326
335 336 337 339 341 339 338 336 334 334 335 335 336 337 337 337 336 336 335 334 334 334 334 333 333 333 332 333 333 333 333 333 333 333 333 333 333 333 332 332 332 332 331 331 332 331 330 330 330 330 330 330 329 329 329 328 328 329 329 329 329 328 328 329 328 328 329 327 327 328 328 328 329 328 326 326 326 326 324 324 325 326 325 325 324
335 337 337 339 341 339 337 335 333 334 335 335 336 337 337 336 336 336 335 334 334 334 333 334 334 333 333 333 333 334 334 333 333 333 333 332 331 331 331 330 330 330 330 330 331 330 330 330 330 330 330 330 329 329 329 328 329 329 329 329 329 329 328 329 329 328 329 329 327 329 329 328 329 328 328 327 327 326 324 324 324 324 324 324 323
335 337 337 338 339 337 336 334 333 334 335 334 336 337 337 336 336 335 335 335 334 334 334 334 334 333 333 333 333 333 333 333 333 332 331 330 330 329 328 327 327 327 328 328 329 329 329 329 329 329 330 330 329 329 329 329 329 329 329 329 329 329 329 329 330 330 330 330 328 329 329 328 328 328 328 328 327 326 325 324 323 323 323 323 323
336 336 337 338 337 334 334 333 333 334 335 335 336 337 336 336 336 335 335 335 334 334 334 334 334 333 333 332 332 332 332 332 332 331 330 329 329 329 327 326 324 324 326 326 327 328 328 327 328 329 329 329 329 330 330 329 330 329 329 329 329 329 329 329 329 330 330 329 329 329 329 328 328 328 328 328 328 327 326 325 324 323 322 321 320
336 335 336 337 334 332 332 332 333 334 335 336 336 336 336 336 336 335 335 334 334 333 333 333 333 333 333 332 332 331 332 332 332 330 330 329 330 329 328 326 325 325 325 326 326 326 326 326 326 327 328 329 330 330 330 329 329 329 329 329 329 329 329 329 329 330 329 329 328 329 329 328 327 327 328 328 328 328 326 325 324 322 321 320 317
336 335 335 334 331 331 332 332 333 334 334 335 336 336 336 336 336 335 334 334 332 332 333 333 333 333 332 332 332 331 331 331 331 330 329 329 329 329 328 327 325 325 325 326 326 325 325 325 325 325 326 328 329 329 329 329 329 329 329 329 329 329 329 329 330 330 329 329 329 329 329 329 326 325 327 328 328 328 326 325 324 322 321 319 315
335 335 334 332 330 331 331 331 332 333 334 335 335 335 336 335 335 334 334 333 332 332 332 333 334 333 332 332 331 331 331 330 331 330 329 328 328 328 328 327 325 325 325 325 325 325 324 324 324 324 325 327 328 328 328 329 329 329 330 330 330 330 329 330 330 330 329 329 329 329 329 328 326 324 326 328 328 328 327 325 323 322 321 318 314
334 333 332 330 330 330 330 331 332 333 334 335 335 335 335 334 334 334 333 332 332 331 332 333 334 332 331 331 331 330 330 330 330 330 328 327 326 326 326 326 325 325 325 325 325 325 324 323 324 325 325 326 325 325 325 327 328 328 329 330 330 330 329 330 330 329 329 328 329 329 328 328 327 325 325 327 327 327 327 325 323 322 321 318 315
330 329 328 327 328 329 329 330 331 333 334 335 335 334 334 334 334 333 332 332 331 331 332 333 333 332 331 331 330 330 330 330 330 329 327 326 325 325 324 325 325 324 325 325 325 325 324 323 324 325 325 324 323 323 323 325 327 328 328 329 329 329 329 329 329 329 329 328 328 329 329 328 327 326 325 326 326 326 327 325 324 322 320 319 317
327 328 328 328 328 328 328 330 331 332 334 335 334 334 333 333 333 333 333 332 331 331 330 330 332 331 330 330 329 329 330 330 330 328 327 326 325 325 324 325 324 324 324 324 324 324 323 323 324 324 324 324 323 322 323 325 327 328 328 328 329 328 329 329 329 329 329 328 328 328 328 328 327 326 325 325 326 326 326 325 324 323 321 319 318
328 329 328 328 329 328 329 330 332 332 333 334 334 333 333 333 332 332 331 329 329 328 326 327 331 331 329 329 329 329 330 329 329 327 327 327 325 324 324 324 324 323 323 323 323 323 323 323 323 322 323 324 322 321 322 324 326 327 327 328 328 328 328 328 327 328 328 328 328 329 329 328 326 326 324 324 325 325 325 325 324 324 321 319 317
329 329 329 329 329 329 330 331 332 332 332 333 333 332 333 332 330 329 326 324 325 325 325 328 331 330 329 329 329 329 329 328 328 327 326 326 325 324 325 324 323 323 322 321 322 323 323 322 322 322 323 323 322 320 321 324 326 326 326 326 326 326 326 326 326 326 327 327 328 328 329 328 326 325 324 322 323 323 324 325 325 324 322 319 318
329 329 330 330 330 330 330 331 331 331 331 332 332 332 330 329 327 326 324 324 325 326 327 329 330 330 329 328 328 328 327 327 327 327 326 326 324 324 324 323 323 322 322 321 322 323 322 322 321 321 322 323 321 319 320 324 325 326 326 326 325 324 325 325 325 324 324 326 327 328 328 327 327 325 323 321 322 323 323 324 323 322 320 320 319
329 329 329 329 329 329 330 330 330 331 331 330 330 330 328 326 326 325 325 326 328 327 327 328 329 329 328 327 327 327 326 326 327 327 326 325 324 324 324 323 322 322 322 321 322 323 322 322 321 320 322 323 320 318 319 322 324 323 323 322 319 318 319 321 323 323 323 324 325 326 327 327 327 325 322 320 321 322 323 323 322 320 319 318 318
327 328 329 329 329 328 329 329 329 330 330 329 328 328 327 326 325 325 326 327 328 328 328 329 328 327 326 326 325 325 325 326 327 326 325 324 324 324 323 323 322 322 322 321 322 323 322 322 320 320 322 322 320 317 318 320 321 321 320 319 316 314 314 316 318 320 322 323 323 325 326 327 327 325 321 320 320 321 322 322 321 320 318 317 317
325 326 328 327 327 328 328 329 329 329 329 328 328 328 327 326 324 325 326 327 327 328 328 329 327 326 326 325 324 324 325 326 326 325 324 324 324 323 323 323 322 322 322 321 322 322 321 321 319 319 322 321 318 317 317 317 319 319 319 319 318 316 314 315 316 318 320 322 323 324 325 326 327 324 320 319 319 320 321 321 320 319 318 316 315
324 325 325 325 326 327 327 328 328 329 328 327 327 327 327 326 325 326 326 326 327 327 327 328 327 326 326 325 324 323 324 324 323 323 323 323 324 324 323 323 322 322 321 321 321 321 320 320 319 319 320 319 317 317 316 316 316 317 317 317 317 316 314 315 316 317 317 318 320 323 324 325 326 324 320 319 319 319 320 319 319 319 318 316 315
322 322 323 323 325 326 328 328 328 329 328 328 327 327 327 327 326 326 326 326 326 326 327 327 327 327 326 324 322 322 322 323 322 323 323 323 323 323 323 322 322 321 320 320 320 320 319 319 318 318 318 318 317 316 315 315 315 315 315 315 316 316 315 314 315 315 315 314 316 320 323 325 326 323 320 319 318 318 319 319 319 318 317 317 315
318 318 319 319 321 324 326 327 327 328 327 327 326 326 326 327 327 326 326 325 325 325 326 326 327 327 325 323 322 321 322 322 323 323 322 322 323 323 322 322 321 319 318 317 316 315 316 317 318 318 317 317 317 315 314 313 314 314 315 314 315 316 315 315 315 315 314 314 314 316 321 326 326 324 321 319 319 318 319 320 319 318 317 316 316
315 315 315 315 317 319 322 325 325 325 325 325 325 325 325 326 327 326 325 325 325 325 326 326 326 325 323 322 321 320 321 322 322 322 322 322 322 322 321 321 319 316 314 313 312 312 313 314 315 316 317 317 316 314 313 312 312 313 313 313 313 315 316 315 315 314 314 314 314 315 319 324 326 325 322 321 320 320 320 320 320 318 316 315 315
312 312 313 313 314 316 318 321 323 323 323 323 323 324 324 325 325 325 325 325 325 325 325 325 324 323 322 321 321 320 321 322 322 322 322 322 321 321 320 319 317 315 313 312 311 311 311 311 312 313 314 315 315 314 312 312 312 312 312 312 312 313 314 315 315 315 314 314 314 314 315 319 322 325 324 323 322 321 321 321 321 320 318 316 315
308 309 310 311 312 314 315 317 319 320 320 320 321 322 323 323 324 324 324 324 324 324 323 323 322 322 320 320 320 320 320 321 320 320 321 320 320 319 318 317 317 316 314 313 312 312 312 312 312 312 312 313 313 312 311 312 312 312 312 312 313 312 313 314 315 315 315 315 315 315 314 315 317 319 320 321 321 320 320 319 319 319 319 319 317
306 307 308 309 310 311 311 312 313 315 315 315 315 317 319 320 321 322 322 322 322 322 321 321 321 320 320 319 319 319 319 319 319 319 319 319 319 318 317 317 316 315 315 315 314 314 314 315 315 314 314 313 312 311 311 312 312 313 313 313 313 313 313 314 315 316 316 316 315 315 314 314 314 314 315 316 316 316 315 315 315 315 315 316 317
305 305 306 306 307 308 308 308 309 309 310 310 309 311 313 314 316 318 319 320 320 319 319 319 319 319 319 319 319 319 318 319 319 319 319 319 319 318 318 317 315 314 315 316 316 316 316 315 315 315 315 314 313 312 312 312 312 313 313 313 313 314 313 314 315 315 316 316 316 315 315 314 314 314 314 314 314 314 314 314 314 314 313 313 314
304 304 305 305 305 305 305 306 306 306 307 308 308 308 309 310 311 314 315 316 318 317 317 317 318 318 318 318 318 319 319 319 318 318 319 318 318 319 318 318 317 316 317 317 317 316 316 316 315 315 315 315 314 314 313 312 312 312 312 313 313 314 314 314 314 315 315 316 316 316 315 315 315 314 314 314 314 314 314 314 314 314 314 313 313
304 304 304 303 303 304 304 304 304 304 305 305 305 305 306 306 307 308 311 313 314 314 313 313 314 316 316 316 317 317 318 318 318 318 318 318 318 318 318 318 318 318 319 319 319 318 318 318 317 317 317 317 317 317 316 314 314 313 312 313 313 314 314 314 314 314 314 315 315 315 315 315 315 315 314 314 314 314 313 314 314 314 314 314 313
303 303 303 303 303 303 302 302 303 303 303 303 303 303 303 303 303 305 309 311 310 309 309 309 310 312 313 314 315 316 316 315 315 316 316 316 316 316 315 315 315 315 317 317 318 319 319 320 319 318 318 318 318 318 318 317 316 315 314 313 313 313 313 313 314 314 314 314 314 314 314 314 314 314 314 314 314 314 313 313 313 313 313 313 313
303 303 303 303 303 303 302 302 301 301 301 301 301 301 301 301 301 303 305 306 304 303 304 304 306 308 308 309 311 312 312 311 311 312 312 312 311 311 311 311 310 311 312 312 313 314 316 317 318 317 317 317 317 317 318 319 319 318 317 316 315 314 314 314 313 313 314 313 313 313 313 313 314 314 314 314 314 314 313 313 313 313 313 313 313
302 302 303 303 303 303 302 301 301 300 300 300 300 300 300 300 300 300 301 301 301 300 300 300 301 302 303 303 304 305 306 306 306 307 307 307 306 305 306 306 307 307 307 307 307 308 308 310 311 312 313 313 312 312 315 318 318 319 319 319 319 318 318 318 317 317 316 315 315 314 314 314 314 314 314 314 314 314 313 313 313 314 314 314 314
301 302 302 302 302 302 302 301 300 300 300 300 299 299 299 299 299 299 299 299 299 299 299 299 299 299 300 300 300 301 301 302 302 303 303 302 302 302 302 303 304 305 305 304 304 304 304 304 305 306 307 306 306 307 310 312 314 315 317 317 318 318 319 319 319 319 320 319 319 319 318 317 317 316 316 316 316 315 315 314 314 314 314 314 314
301 301 301 301 301 301 301 300 300 300 300 299 299 299 299 299 299 299 299 299 299 299 298 298 298 298 298 299 299 299 299 299 300 300 300 299 299 300 300 300 301 301 301 301 301 301 301 302 302 302 302 302 302 303 304 306 307 309 310 311 312 313 314 314 314 315 316 317 318 319 320 320 320 319 319 318 318 318 317 317 316 315 315 315 314
300 300 300 300 300 300 300 300 300 300 299 299 299 299 299 299 298 298 298 298 298 298 298 298 298 298 298 298 298 298 298 298 298 298 298 298 298 298 298 299 299 299 299 299 299 299 299 300 300 300 300 300 300 301 301 302 303 304 304 305 306 307 307 308 309 310 311 312 313 315 316 317 318 319 319 319 319 318 317 317 318 317 317 316 316
299 299 299 299 299 299 299 299 299 299 299 299 299 299 299 298 298 298 298 298 297 297 297 297 297 297 297 297 297 297 298 298 298 297 297 297 297 297 297 297 298 298 298 298 298 298 298 298 298 298 298 299 299 299 299 300 300 301 301 301 302 302 303 303 304 305 306 307 309 310 311 312 314 315 316 317 318 318 317 317 317 318 318 318 317
299 299 299 298 298 298 298 298 298 298 298 298 298 298 298 298 298 297 297 297 297 297 297 297 297 297 297 297 297 297 297 297 297 297 297 297 297 297 297 297 297 297 297 297 297 297 297 297 297 297 297 298 298 298 298 298 299 299 299 299 300 300 300 301 301 301 302 303 304 304 306 307 309 310 312 313 316 317 318 318 317 318 318 318 318
299 299 298 298 298 298 298 298 298 298 298 298 298 297 298 298 297 297 297 296 296 296 296 296 296 296 296 296 296 296 296 296 296 296 296 296 296 296 296 296 296 296 296 296 296 296 296 296 296 296 296 296 296 297 297 297 298 298 298 298 298 299 299 299 299 300 302 303 303 302 302 303 304 305 307 309 312 315 317 317 317 318 318 317 317
299 298 299 299 298 298 298 297 297 297 297 297 297 297 297 297 296 296 296 296 296 295 295 295 295 295 295 295 295 295 295 295 295 295 295 295 295 295 295 295 295 295 295 295 295 295 296 296 295 295 295 295 295 296 296 296 297 297 297 298 298 298 298 298 299 301 302 304 304 303 302 301 301 302 304 306 309 312 314 316 317 318 318 318 317
299 298 298 298 298 298 297 297 297 297 297 297 297 296 296 296 296 296 296 296 295 295 295 295 295 295 295 295 295 295 295 295 294 294 295 294 294 294 294 294 294 295 295 296 295 295 296 296 296 296 295 295 295 295 295 295 295 295 296 296 297 297 297 297 297 299 300 301 302 302 302 302 302 302 303 304 306 309 311 313 315 316 316 316 315
299 298 298 298 298 297 297 297 297 297 296 296 296 296 296 296 296 296 296 295 295 295 295 295 295 294 294 294 294 294 294 294 294 294 294 294 294 294 295 294 294 295 295 296 296 296 296 296 296 296 296 295 294 294 295 295 295 295 295 295 295 296 296 296 297 297 298 298 299 300 301 301 302 303 303 303 304 306 308 310 312 313 314 314 313
298 298 298 298 297 297 297 296 296 296 296 296 296 296 295 295 295 295 295 295 295 295 294 294 294 295 294 294 294 294 293 293 294 294 295 295 295 295 295 295 295 295 296 296 296 296 296 296 296 296 296 295 294 294 294 295 294 294 294 294 294 294 295 295 296 296 297 297 297 298 299 300 301 303 303 304 304 305 306 309 310 312 313 313 312
298 298 298 297 297 297 297 296 296 295 295 295 295 295 295 295 295 295 295 295 295 295 294 294 295 295 295 295 295 294 294 294 295 295 295 295 295 295 296 295 296 296 296 296 296 296 296 296 296 296 296 295 295 295 295 295 295 294 294 294 294 294 294 294 295 295 296 296 296 297 298 299 300 302 304 305 306 306 306 308 310 312 312 312 311
298 297 297 297 297 297 297 296 296 295 295 295 295 295 295 295 295 295 295 295 295 295 295 294 295 295 295 295 295 295 295 295 295 295 295 295 295 295 296 296 296 296 296 296 296 296 296 296 296 296 296 296 296 295 295 295 295 294 294 294 294 294 294 294 294 295 295 295 295 296 297 298 299 301 302 305 306 306 306 306 308 310 310 310 310
297 297 297 297 297 297 297 296 295 295 295 295 295 295 295 295 295 295 295 295 295 294 294 294 295 295 295 295 295 295 295 296 296 295 296 296 296 296 296 296 296 296 296 296 296 296 296 296 296 296 296 296 296 296 296 295 295 294 294 294 294 294 294 294 294 294 294 294 294 295 297 298 299 300 301 303 304 305 304 305 306 307 307 307 308
297 297 297 297 297 297 297 296 296 295 295 295 295 295 295 295 295 295 295 295 295 294 294 294 295 295 295 295 295 295 295 296 296 296 296 296 296 296 296 296 295 295 295 295 295 296 296 295 295 295 295 295 296 296 295 295 294 294 294 294 294 294 294 294 294 294 294 294 295 296 297 298 299 300 301 302 303 303 303 304 305 306 306 305 306
297 297 297 297 297 297 297 296 296 295 296 296 295 295 295 295 295 295 295 296 295 295 294 294 295 295 295 295 295 295 295 295 296 296 296 296 296 295 295 295 295 295 294 294 294 294 294 294 294 295 295 294 294 295 294 294 294 294 294 294 294 294 294 294 294 294 294 295 295 296 297 298 299 299 300 300 301 302 302 303 304 304 304 304 304
297 297 297 297 297 297 297 296 296 296 296 296 296 295 295 295 295 295 295 295 296 295 295 294 295 295 294 295 295 296 296 296 296 296 296 296 296 295 294 294 294 294 294 294 294 294 294 294 294 294 294 294 294 294 294 294 294 294 295 295 295 295 295 295 295 295 295 295 296 298 299 299 299 299 299 299 300 301 301 302 302 302 303 304 304
Wind_Speed
10 13 15 19 29 36 35 32 23 11 11 20 30 31 26 27 28 26 27 25 22 22 22 21 19 16 15 13 12 11 11 11 11 11 11 11 12 12 11 10 9 9 10 9 9 8 8 9 8 8 9 9 9 8 8 8 9 9 8 8 8 9 9 8 10 12 12 11 11 11 10 6 5 8 9 9 8 8 9 9 9 9 8 8 8
9 11 12 15 23 31 27 19 16 12 8 9 19 23 20 25 27 25 26 24 23 22 22 21 18 16 15 13 12 12 11 11 11 11 11 12 12 11 10 10 10 10 10 9 8 7 7 8 7 7 8 8 8 8 7 8 8 9 8 8 8 8 9 11 12 11 10 11 10 10 9 8 7 9 8 7 8 8 8 9 9 8 8 8 7
12 11 11 13 19 25 20 13 12 12 9 10 19 24 23 26 26 24 24 23 22 20 20 18 15 14 13 12 12 11 11 11 11 11 11 12 12 10 10 10 10 10 9 9 8 7 7 7 7 7 8 8 8 8 7 7 7 8 8 8 8 9 9 11 12 8 8 11 10 7 5 5 7 7 7 6 5 7 8 9 8 7 8 8 7
15 12 12 13 16 20 18 14 14 14 13 14 20 25 27 27 25 25 25 25 24 21 19 16 14 14 12 11 11 10 10 11 11 12 11 12 12 10 10 10 9 9 8 8 7 6 6 6 7 7 7 7 7 7 7 7 7 8 8 8 9 10 10 10 8 6 9 10 6 4 4 4 3 4 6 7 5 5 6 7 7 7 7 7 8
15 14 13 14 15 17 18 16 16 17 16 17 21 25 29 28 24 24 25 26 25 22 20 16 15 15 13 12 12 10 11 11 12 13 13 13 12 10 10 9 9 8 7 7 7 6 5 5 6 6 6 7 6 6 6 6 7 8 8 8 9 10 10 11 8 6 10 9 4 3 3 2 3 6 7 5 5 5 5 5 6 6 7 8 8
15 15 14 16 15 14 15 15 17 18 16 17 21 24 27 27 24 24 24 24 24 23 20 17 17 17 15 15 14 13 13 13 15 16 15 14 12 11 10 9 8 7 7 7 7 6 6 6 6 6 6 6 5 5 6 5 7 8 8 8 9 9 9 11 10 8 9 7 5 3 1 1 7 10 6 4 5 5 6 6 6 6 7 8 9
15 15 15 17 15 12 12 13 17 18 17 18 20 22 24 25 25 25 25 24 24 23 21 19 18 17 16 15 15 15 15 14 15 16 15 14 12 12 11 10 9 8 8 7 7 7 7 7 6 5 6 5 4 5 6 5 6 7 7 8 8 8 9 10 11 11 9 6 5 2 1 3 10 10 7 6 5 4 5 7 8 9 10 9 10
15 14 15 17 14 11 11 13 17 18 18 19 19 21 24 25 26 26 26 25 25 25 23 22 20 17 15 15 15 16 17 15 15 16 15 15 15 14 12 11 10 9 9 8 7 7 8 7 7 6 5 5 4 5 5 5 5 6 6 7 7 8 8 8 10 11 10 7 5 2 2 6 8 7 8 8 7 5 5 6 9 11 12 11 11
15 15 17 16 10 8 9 13 17 17 19 21 20 21 23 25 26 26 27 26 26 26 25 23 21 17 14 16 18 18 19 18 17 17 17 17 17 16 14 13 11 10 10 10 9 8 8 7 7 7 6 5 5 4 4 4 5 5 5 7 7 7 7 7 7 9 9 7 7 4 4 7 6 4 7 8 7 8 6 5 8 10 11 10 11
15 16 17 11 5 8 11 14 17 16 18 21 21 22 23 24 25 25 26 27 26 27 26 23 20 17 17 21 22 21 21 21 19 18 18 18 17 16 15 14 12 11 10 11 10 8 8 8 7 7 6 6 6 5 5 5 5 5 5 6 6 7 7 7 7 7 8 8 8 7 6 7 6 5 8 8 7 8 7 8 10 10 10 8 7
14 15 14 7 8 10 13 16 17 17 18 20 23 26 25 24 25 23 24 26 25 25 24 21 18 19 21 24 25 24 23 22 20 20 19 18 18 17 16 14 12 11 10 10 9 9 8 8 7 6 6 7 6 5 5 5 6 6 6 6 6 7 7 8 7 6 7 9 9 9 7 8 7 6 8 10 8 8 9 10 11 11 10 8 6
11 12 10 6 8 11 14 17 18 19 20 19 22 27 27 25 24 23 24 26 25 23 20 19 20 22 22 24 25 25 24 23 22 22 21 20 19 18 17 15 13 11 10 10 9 9 8 6 5 5 6 7 6 5 4 4 5 6 6 6 7 7 7 7 8 7 7 8 9 10 8 7 8 6 7 10 8 9 12 12 12 12 9 8 8
8 9 8 5 6 9 13 16 17 19 20 19 21 26 27 25 24 23 24 25 24 23 20 20 23 23 22 24 25 24 23 23 23 23 22 21 20 20 18 16 14 12 11 10 9 8 7 5 4 4 5 7 6 5 4 3 5 5 6 7 6 7 8 7 7 7 8 7 8 10 8 7 8 7 8 9 8 10 13 13 13 11 9 9 9
5 4 2 1 0 4 10 14 14 16 18 18 21 24 24 24 25 24 22 22 23 21 21 23 23 22 22 23 23 22 21 22 22 23 22 21 20 19 18 16 15 13 12 11 9 8 6 5 4 5 7 7 6 4 3 2 4 5 6 6 6 7 7 7 7 6 7 7 7 8 9 8 8 8 8 11 11 12 13 14 14 11 9 10 9
5 6 7 8 8 5 4 9 12 15 16 17 19 21 22 23 24 24 23 24 23 20 22 25 23 22 22 22 21 20 20 21 21 22 22 21 19 18 17 16 14 13 11 10 9 8 6 5 5 7 8 7 6 4 3 2 2 3 4 4 5 5 5 6 6 6 6 6 6 8 8 9 9 8 9 11 13 13 14 16 16 12 7 7 7
8 8 10 12 11 9 4 4 9 14 15 16 20 22 22 21 21 24 26 26 23 22 25 25 22 21 21 21 20 19 19 21 22 22 21 19 17 17 16 15 13 12 11 10 9 8 7 6 6 7 7 7 5 4 4 3 3 3 2 3 3 4 4 4 4 5 5 6 7 8 8 8 8 8 9 12 13 15 16 17 17 14 9 6 5
8 9 11 11 13 14 9 6 9 14 14 14 19 24 24 19 17 17 15 14 15 20 23 23 21 20 20 20 20 19 20 21 22 22 21 18 17 16 15 14 13 12 11 10 9 9 8 8 7 7 6 6 5 5 5 4 3 3 3 3 3 3 3 3 4 4 5 5 7 8 8 7 8 8 10 13 15 17 18 17 15 12 9 7 6
9 10 11 9 10 14 14 10 7 11 13 13 15 20 21 17 14 12 12 14 15 18 19 20 20 20 20 21 21 20 20 22 22 21 20 19 17 16 15 14 14 12 10 9 9 9 9 8 8 7 7 8 7 6 6 5 3 3 3 3 3 3 3 3 4 4 5 5 6 8 7 7 8 8 9 13 17 20 20 16 13 9 5 6 7
9 10 10 8 9 13 15 14 10 8 9 13 16 16 15 15 17 18 19 20 20 20 18 18 19 20 20 21 21 20 21 22 22 20 19 18 17 16 16 15 14 12 10 9 9 9 9 8 7 7 8 9 8 7 7 6 5 5 5 5 4 4 4 4 4 4 5 5 6 8 8 7 8 8 10 14 16 19 20 17 15 12 6 5 9
8 8 9 8 8 11 13 15 16 13 9 13 18 20 18 18 20 20 20 21 23 24 21 19 18 18 19 19 20 20 21 22 21 19 19 17 16 16 15 14 13 11 9 9 8 8 8 7 7 7 8 9 8 7 6 6 6 6 6 6 4 4 3 3 4 5 5 5 6 8 8 9 10 9 10 14 15 17 20 18 17 14 7 6 9
5 7 10 9 8 10 13 13 15 16 14 15 20 22 21 21 21 20 20 23 25 26 24 21 18 18 18 19 19 19 20 21 20 19 18 17 16 15 14 14 13 11 9 8 8 8 7 6 6 6 8 9 8 6 6 6 6 6 6 6 5 5 3 2 3 4 6 6 6 7 8 10 11 10 12 14 15 17 19 18 17 13 7 6 10
5 5 6 7 8 10 12 13 14 15 17 17 18 20 22 22 22 22 23 25 25 24 23 21 20 18 17 18 18 18 19 20 19 19 18 17 15 14 13 13 12 10 9 8 8 8 7 6 5 6 8 9 7 6 6 6 6 6 6 6 5 5 4 3 2 2 4 5 6 7 9 12 12 12 13 13 14 16 17 17 17 13 8 8 11
7 5 4 4 6 8 8 10 13 15 17 16 15 17 18 18 21 24 26 27 27 26 24 23 21 19 19 18 18 19 20 20 20 19 18 16 15 14 13 12 11 10 9 8 7 7 7 6 6 7 9 8 6 5 5 6 6 6 5 5 4 4 4 4 3 3 2 2 4 7 9 12 14 13 13 13 14 16 15 13 14 13 10 11 13
9 7 5 5 3 5 7 9 11 13 14 14 13 14 14 15 20 24 21 22 27 28 27 26 24 22 21 20 20 21 21 21 20 20 18 17 15 14 13 12 11 10 9 8 7 7 6 6 7 8 9 7 5 5 4 5 5 5 5 5 4 4 3 3 4 4 4 4 2 6 9 12 14 14 14 14 14 16 14 11 12 13 12 13 16
9 8 7 7 5 2 5 8 10 11 12 12 12 13 13 13 17 19 17 18 25 29 27 26 25 23 22 21 20 21 21 21 21 19 18 17 16 15 14 12 11 11 10 9 8 7 7 7 8 8 8 6 5 4 4 4 5 5 5 4 3 3 3 3 3 3 4 6 4 3 8 12 13 14 15 15 15 16 14 11 11 12 12 13 17
8 8 8 6 5 4 2 5 8 10 11 13 13 12 13 13 13 14 15 15 19 25 26 24 23 23 21 19 17 16 17 18 19 19 18 18 17 16 14 13 12 12 12 10 10 9 8 8 7 7 7 6 5 4 3 4 4 4 4 3 2 1 2 2 2 2 3 5 6 3 5 10 12 13 14 15 15 15 14 12 12 12 12 13 16
7 8 8 7 6 7 6 5 8 12 13 14 14 13 15 17 15 13 13 12 14 19 20 19 19 20 20 19 18 16 16 17 18 19 20 19 18 16 14 13 12 12 12 11 10 9 8 7 7 6 6 6 5 4 3 4 4 4 4 4 3 2 1 1 1 2 2 3 4 4 2 4 8 11 12 13 13 13 13 13 14 14 14 15 16
9 10 9 9 8 7 9 9 10 15 17 15 15 15 15 17 15 12 12 12 13 14 15 16 17 17 18 19 20 19 20 20 20 20 20 19 17 15 14 13 11 10 9 8 8 7 7 6 6 5 5 4 4 4 4 3 4 4 4 3 3 2 3 2 1 0 0 1 3 2 2 1 2 5 7 8 9 10 10 11 13 14 15 17 16
11 10 9 10 9 8 10 12 14 18 20 19 19 18 18 17 15 14 14 14 14 15 16 16 17 16 15 17 19 21 21 21 20 19 19 17 16 15 14 13 11 8 6 4 5 5 5 5 4 3 3 3 3 3 3 3 2 3 3 2 2 2 4 4 3 2 2 1 1 1 1 1 0 1 3 4 5 6 7 8 10 10 12 14 14
12 10 9 9 9 9 11 14 14 16 19 21 21 21 23 23 20 20 19 17 18 18 19 20 20 18 16 16 18 21 20 18 17 16 15 14 13 12 10 8 8 8 5 2 3 4 4 3 3 2 2 2 3 3 4 3 2 2 2 1 1 2 4 5 5 4 4 3 3 2 1 1 1 2 3 4 5 6 7 7 8 8 8 10 11
13 12 11 11 10 10 11 14 14 13 17 21 22 23 26 27 26 26 25 24 25 25 25 25 24 22 20 19 20 19 17 16 16 16 15 15 14 13 12 11 10 11 9 7 5 5 5 6 6 6 6 5 3 1 2 3 3 2 2 1 0 1 3 4 5 4 4 4 5 4 4 4 3 3 4 5 6 7 8 8 8 8 8 8 9
12 12 12 12 11 10 11 13 13 14 16 18 21 26 27 28 28 27 27 28 29 30 29 28 27 25 23 22 21 20 19 18 18 17 17 18 18 18 18 17 16 14 13 11 10 10 10 10 10 10 10 9 8 6 3 1 1 2 3 3 2 1 2 2 3 3 3 4 4 5 6 6 6 6 7 7 8 8 9 10 10 10 9 10 11
12 13 12 11 10 10 14 15 16 19 20 18 24 29 28 28 29 28 29 31 31 31 30 28 27 27 26 24 23 22 22 21 20 20 20 19 19 19 19 18 18 16 15 14 13 13 13 12 12 11 11 10 9 8 7 5 3 2 1 2 3 3 3 4 4 5 5 6 6 7 8 8 9 9 9 10 10 10 11 11 12 12 12 12 12
12 13 12 10 9 11 16 19 20 23 23 23 28 32 30 30 32 32 33 34 33 32 32 31 30 30 29 27 25 24 23 23 22 21 20 20 20 20 20 19 18 17 17 16 15 14 14 13 13 12 11 10 9 8 7 6 5 4 3 1 1 2 3 5 6 7 7 8 8 8 9 10 10 10 11 12 12 13 13 13 13 14 14 14 14
10 12 11 11 11 10 14 21 23 24 25 26 29 32 32 32 32 32 33 34 34 33 33 33 33 31 30 30 29 28 27 25 24 22 22 22 22 22 21 20 19 18 18 18 17 16 16 15 14 12 11 10 10 8 6 4 4 3 2 2 1 1 2 3 4 5 6 7 8 9 10 11 11 12 12 12 12 13 14 15 16 16 16 16 16
11 12 12 12 12 12 16 21 22 23 26 29 31 34 35 35 34 34 35 35 35 33 31 31 31 29 28 28 28 27 26 25 25 24 23 23 22 21 20 19 18 17 17 16 15 15 15 14 13 12 11 11 10 7 6 4 3 3 2 2 2 2 3 3 4 5 6 7 7 8 9 10 11 12 12 12 11 12 14 15 16 17 18 18 19
13 15 15 15 15 15 18 22 23 24 26 30 34 37 38 38 37 36 36 35 34 32 29 28 27 26 26 25 24 24 24 23 23 23 22 21 20 19 18 17 16 16 15 14 13 13 12 12 11 10 10 9 9 7 6 5 4 4 3 3 3 3 4 4 5 6 6 7 8 9 10 11 13 13 13 12 11 11 13 14 15 17 18 19 20
16 17 17 17 15 14 17 21 22 21 24 29 33 36 37 37 36 35 34 33 31 29 27 26 25 23 23 23 22 22 22 22 21 21 20 19 18 17 16 15 15 15 14 13 12 11 10 10 9 9 8 8 7 7 6 6 6 6 5 6 6 6 6 7 7 7 7 7 8 9 10 11 13 14 13 13 13 12 12 13 14 14 15 16 18
18 19 18 17 15 13 16 21 20 18 21 27 31 34 34 33 32 31 31 30 28 25 24 23 22 21 20 20 20 20 20 20 20 19 18 17 16 15 14 13 13 13 12 11 10 10 9 9 8 8 7 6 6 6 6 6 6 6 7 7 7 8 9 9 10 11 11 10 10 10 10 11 12 13 13 13 13 13 12 12 12 12 13 14 16
17 19 19 19 18 16 15 17 18 19 23 28 31 32 29 25 26 28 27 25 23 22 21 20 20 19 19 19 19 19 19 19 18 16 16 15 14 13 13 12 12 12 11 10 10 9 9 8 8 7 6 6 5 5 5 5 6 6 6 7 7 8 9 10 11 12 13 13 13 13 12 12 13 13 14 15 15 15 15 13 11 12 15 16 16
14 17 19 19 20 19 17 16 17 21 26 29 31 30 26 23 25 26 24 21 19 19 19 20 20 20 19 19 18 18 18 17 16 15 14 14 14 13 12 12 12 11 10 10 9 9 9 8 8 7 7 7 6 5 5 5 6 7 7 7 7 7 8 10 11 12 12 13 14 14 14 14 14 15 15 15 16 16 16 16 15 16 18 18 16
14 17 19 19 19 20 20 19 19 22 25 26 28 28 24 23 24 22 20 18 18 18 18 19 20 19 19 18 17 16 16 16 15 14 14 14 13 12 11 11 11 10 10 10 10 10 9 8 8 8 8 8 8 7 7 6 6 7 7 6 7 8 9 9 10 10 9 10 11 13 14 15 15 16 16 17 17 17 16 17 18 18 18 18 17
15 16 19 20 18 17 18 18 18 21 23 24 25 24 22 22 21 18 16 16 16 17 18 18 18 18 17 16 16 15 15 14 13 13 13 12 12 11 12 12 12 11 10 10 10 10 9 8 8 8 9 10 10 10 9 8 8 7 8 7 8 8 9 10 10 10 10 11 11 11 13 14 15 15 16 17 18 19 19 19 19 18 17 17 17
14 16 20 22 20 17 18 18 18 19 21 21 22 21 19 19 17 14 14 15 16 16 17 17 16 15 15 14 14 14 13 12 12 12 11 12 12 11 11 12 12 11 9 8 9 9 9 8 8 8 9 11 13 13 12 11 10 9 9 9 9 10 11 11 12 12 13 13 13 14 14 15 15 16 17 17 18 20 21 21 21 19 17 17 18
10 12 17 20 20 19 19 18 17 18 20 19 19 19 18 16 14 13 13 14 15 15 16 15 14 13 12 12 12 12 12 12 12 12 11 11 11 11 9 9 10 9 8 7 7 8 7 7 7 7 8 10 14 15 15 15 14 13 11 11 11 11 12 13 13 14 14 15 16 16 15 15 16 16 17 18 19 20 20 20 20 20 19 18 19
11 12 15 19 20 19 19 18 18 18 19 20 19 19 18 16 14 13 13 13 13 14 14 13 12 11 10 10 9 10 11 12 12 12 11 11 11 10 8 8 8 7 7 6 6 6 6 6 6 7 8 10 13 14 15 16 17 17 16 16 15 14 14 15 15 15 16 17 19 18 17 16 15 15 16 18 20 21 21 20 19 20 20 20 20
11 13 16 19 20 18 17 17 17 17 19 20 20 19 18 16 14 13 12 12 12 12 11 10 10 9 9 9 9 10 10 10 12 11 10 10 11 10 8 8 8 8 8 8 8 8 8 8 8 9 10 12 13 14 14 15 16 17 18 20 20 19 18 18 18 16 18 19 20 21 20 19 16 15 15 16 18 20 21 20 19 20 20 20 20
12 14 16 17 17 16 15 15 16 17 19 19 19 18 16 14 13 11 10 10 11 11 11 10 9 9 9 9 10 10 10 9 11 12 11 10 10 10 9 9 9 8 8 8 8 8 8 8 9 10 11 12 12 13 13 15 17 19 20 21 22 21 21 21 21 21 22 22 19 19 19 17 14 12 12 12 12 14 17 18 17 18 18 18 18
11 12 15 16 16 15 14 14 15 16 17 17 17 16 14 12 11 9 7 8 10 10 10 10 9 9 9 9 9 10 10 10 10 11 11 11 10 10 9 7 7 6 5 5 6 6 7 7 8 9 10 11 12 13 14 17 19 19 19 20 21 21 22 23 23 23 25 23 20 21 21 18 13 11 10 10 10 11 14 14 14 14 15 14 15
11 12 14 15 15 15 14 14 15 15 15 15 14 13 13 12 11 9 8 8 9 9 9 9 9 9 9 9 8 8 10 11 10 10 10 10 11 12 12 9 6 3 2 2 3 4 5 6 7 8 8 9 12 14 16 18 19 18 18 19 19 20 21 22 22 22 22 20 20 21 21 17 13 10 10 10 10 12 14 13 13 14 14 13 13
10 11 12 13 14 14 14 14 14 14 13 13 12 12 12 12 12 12 10 8 8 8 7 8 8 8 9 8 8 8 9 10 10 10 10 8 8 10 13 13 9 6 5 4 3 3 4 4 6 7 9 10 12 14 16 17 18 18 19 18 18 18 18 19 19 19 19 18 17 16 15 14 11 10 10 11 12 13 14 14 14 15 14 13 13
Wind_Direction
168 168 178 181 181 186 189 188 193 188 169 182 188 190 187 180 179 181 182 179 176 176 178 180 179 176 173 171 173 171 168 168 168 170 170 173 173 173 176 178 177 177 179 180 186 193 197 199 197 192 189 188 190 191 190 183 172 165 155 149 140 130 131 137 138 133 127 123 112 99 96 105 127 142 159 163 162 168 171 179 182 180 177 179 183
169 173 183 187 187 192 196 191 187 176 165 181 184 185 181 175 180 184 183 182 180 177 178 179 180 177 173 173 175 173 173 172 171 172 172 170 169 170 173 174 175 173 172 175 181 191 197 202 205 196 190 188 190 193 192 184 176 170 160 151 146 139 139 145 144 135 133 138 130 111 97 90 109 134 148 157 168 172 175 182 182 182 181 181 183
182 180 185 192 194 197 198 192 186 172 160 173 179 183 180 176 181 182 180 184 184 179 179 179 180 180 177 175 172 170 174 174 171 170 170 168 166 168 171 170 170 166 165 170 175 186 198 207 210 201 191 188 191 194 196 189 180 175 168 158 148 141 144 154 153 143 143 145 141 133 120 108 108 116 118 126 161 181 188 189 182 181 180 178 179
183 180 186 191 193 199 199 189 185 174 159 168 176 177 178 178 179 177 178 184 185 183 182 179 177 178 176 171 166 162 166 167 165 167 168 168 166 167 169 166 163 163 165 168 170 182 200 210 209 201 187 185 189 192 195 192 182 175 172 166 156 145 151 167 168 158 158 153 142 130 139 155 141 119 112 94 106 153 178 191 194 191 180 173 178
181 181 188 194 195 201 199 181 178 179 164 167 177 176 177 178 175 173 176 181 184 185 183 176 171 171 165 159 159 155 155 159 163 167 170 171 170 167 165 161 158 158 162 167 170 180 196 204 202 194 180 180 186 188 188 186 183 180 174 174 172 161 161 173 179 175 172 168 153 135 144 182 161 140 132 93 81 108 125 155 175 176 170 170 175
186 186 189 200 199 199 199 175 171 180 168 167 177 177 175 173 171 171 173 178 182 182 178 173 170 170 164 158 160 160 159 167 171 170 171 171 168 164 159 155 154 155 160 166 169 175 186 192 193 186 174 178 186 181 179 179 183 186 181 179 182 179 171 173 178 179 180 180 175 175 271 241 159 156 152 106 92 93 100 127 136 135 144 154 152
191 190 191 205 200 191 199 179 172 177 166 166 175 173 171 169 171 172 173 177 178 176 174 173 173 173 170 166 165 167 166 171 173 170 168 166 162 158 154 151 153 156 160 164 164 168 176 180 184 179 170 177 182 175 174 176 181 186 188 184 183 188 185 181 182 180 182 190 184 173 352 150 159 165 167 145 132 109 92 108 116 122 124 124 126
189 190 191 205 202 186 186 172 172 173 164 167 170 167 167 169 174 174 174 177 178 179 180 179 178 175 172 171 170 171 168 166 166 164 162 159 157 153 151 152 151 153 157 159 158 160 167 172 175 172 168 175 177 175 176 175 180 188 191 188 182 189 194 191 188 186 187 189 183 165 85 147 159 168 171 159 145 136 118 107 109 119 123 120 123
190 196 199 205 195 168 158 155 166 167 163 169 166 162 164 167 173 173 174 179 181 184 185 184 183 177 173 174 172 171 166 161 160 159 156 155 155 153 152 152 148 150 152 151 151 149 153 160 166 169 170 174 175 177 181 182 187 192 194 195 190 191 197 194 189 193 194 189 183 175 138 150 157 164 170 161 145 144 143 131 123 122 121 119 125
194 205 208 199 140 134 144 149 160 160 162 167 162 161 163 164 169 170 172 178 182 186 186 185 185 179 177 177 172 167 163 160 158 156 156 156 157 156 156 154 150 153 151 148 147 144 146 147 150 161 166 172 178 181 188 193 197 201 203 204 201 197 198 198 194 196 201 200 190 177 162 161 161 166 173 167 155 152 147 143 141 136 127 118 123
201 210 208 169 111 134 144 147 156 158 160 160 158 163 164 166 170 169 172 178 182 186 184 182 182 180 180 177 170 165 163 160 159 160 162 163 163 163 161 160 159 160 157 152 147 144 145 144 146 155 164 172 178 182 188 198 206 211 211 210 215 213 208 206 206 205 207 210 204 197 194 180 173 187 186 174 166 154 146 145 147 142 131 121 123
203 211 205 152 128 146 148 149 154 157 160 157 156 161 164 169 173 171 174 180 181 181 179 178 179 179 179 176 171 167 165 164 164 167 169 170 170 169 168 168 169 168 163 158 151 147 144 147 151 159 173 176 172 175 182 194 207 215 215 213 219 222 221 217 213 214 213 210 208 211 214 193 189 218 206 184 173 154 149 149 150 147 133 122 129
211 219 218 196 169 160 152 151 153 156 160 157 156 158 161 169 176 175 176 181 180 177 176 177 178 177 176 176 173 170 169 169 172 173 173 173 172 172 172 172 173 172 168 163 156 151 145 145 151 159 178 174 161 165 175 193 211 221 222 219 218 220 224 224 219 221 222 218 213 213 215 204 202 221 213 190 170 152 151 148 148 150 138 132 138
208 225 254 315 89 142 149 151 153 157 157 157 156 156 161 169 176 176 175 178 178 175 175 176 177 176 177 178 175 173 173 175 177 176 174 172 170 170 171 172 173 172 170 168 164 157 149 144 140 140 155 158 146 144 149 182 215 224 227 225 225 224 224 225 224 228 229 226 220 211 210 213 212 216 208 192 176 163 157 149 147 146 139 140 143
88 78 64 58 55 53 117 142 151 158 158 158 156 157 165 171 175 176 175 177 177 173 174 174 174 175 176 178 178 175 177 179 180 177 173 169 168 170 170 168 170 169 169 171 170 164 154 143 133 130 139 141 126 111 96 95 163 191 211 218 219 217 213 218 223 224 223 220 217 209 205 216 222 213 201 193 186 179 167 156 150 146 143 148 147
98 99 95 99 100 87 79 136 161 164 162 160 159 162 169 169 173 180 181 181 175 169 171 171 170 173 175 178 179 179 179 180 179 175 172 170 169 171 170 166 164 163 165 168 168 164 155 142 132 126 134 134 113 89 81 84 115 134 158 190 197 196 191 201 213 216 217 211 208 205 200 210 217 207 197 193 190 185 176 167 160 154 152 157 157
114 118 118 123 124 119 129 173 171 161 163 161 158 164 171 169 170 178 175 166 155 155 162 165 166 171 178 180 180 180 181 180 177 173 171 173 172 172 170 165 162 160 159 162 161 159 152 140 132 127 136 140 116 88 78 78 111 130 142 167 174 173 170 180 194 202 207 200 198 200 197 200 200 197 197 196 194 191 183 175 170 164 159 164 166
106 110 112 114 121 126 143 166 149 142 162 164 153 160 171 171 164 150 119 110 126 142 153 161 165 171 182 186 183 180 181 181 177 173 173 175 173 173 171 168 165 160 157 159 158 158 152 140 132 131 141 144 121 88 70 69 100 127 134 142 144 140 142 165 186 196 201 195 195 199 197 195 193 193 197 198 198 196 188 180 177 171 161 174 173
103 105 104 102 109 120 140 155 144 131 151 154 148 147 150 151 144 129 112 114 131 144 152 161 167 175 185 189 185 181 182 182 178 176 176 175 174 176 175 172 168 162 159 160 160 161 157 140 127 131 142 141 119 87 68 73 91 106 113 113 116 120 126 152 173 186 194 190 193 197 194 191 190 190 194 196 199 200 194 187 185 181 175 188 178
112 118 117 110 101 110 133 151 157 155 133 124 134 134 132 137 137 132 130 135 144 150 157 166 172 180 186 188 187 184 183 183 180 178 177 173 175 179 178 175 168 163 162 161 163 167 160 140 124 127 141 139 119 89 75 82 89 93 99 98 92 96 114 153 175 191 196 190 194 192 187 186 185 184 190 191 196 201 198 192 190 188 192 196 179
107 126 128 121 108 114 128 137 148 153 140 124 127 129 133 140 142 145 148 149 152 155 161 168 173 179 184 185 187 185 183 182 180 179 177 172 175 181 181 176 168 163 163 161 163 166 156 139 125 132 144 139 118 92 83 90 95 92 89 83 71 67 79 130 186 205 205 200 194 184 182 184 181 182 188 186 192 201 199 196 194 191 198 197 182
94 111 116 121 125 130 134 131 129 131 132 132 131 132 138 142 147 155 155 153 157 161 163 168 171 177 181 184 185 184 182 180 177 177 175 171 176 181 179 174 167 163 161 158 160 161 151 135 126 138 148 137 116 97 87 88 94 95 89 81 72 63 62 74 113 165 187 195 189 179 183 185 181 184 187 182 187 194 193 194 197 194 197 198 187
78 66 60 77 123 138 144 140 133 128 127 132 136 138 140 141 149 160 160 158 161 163 165 169 170 174 179 182 184 182 179 177 175 174 172 172 175 176 174 171 166 160 154 150 154 154 150 142 135 143 148 137 120 107 97 89 92 97 95 88 80 70 69 75 85 98 109 162 184 184 186 184 181 182 184 181 183 187 186 190 198 200 203 204 196
68 53 43 29 60 138 157 154 147 141 137 137 140 141 142 146 155 160 158 155 159 161 164 167 170 174 177 178 180 180 178 174 171 170 170 171 171 169 167 166 161 153 146 144 149 152 151 148 146 146 147 142 130 119 109 101 100 102 101 95 80 68 77 92 84 69 51 46 127 185 189 183 181 181 184 186 185 185 187 191 202 209 210 211 207
73 62 52 34 22 63 159 159 154 148 142 141 144 146 147 150 156 156 148 146 155 160 163 166 169 171 171 173 175 175 173 170 169 168 166 163 160 159 160 159 153 145 140 140 142 142 144 146 149 149 149 149 144 130 114 109 112 111 109 104 87 64 74 114 103 65 37 29 45 157 186 185 183 182 184 189 189 192 199 205 213 216 214 217 217
64 62 55 44 22 8 45 131 141 133 127 131 135 139 142 140 142 145 143 142 151 158 161 163 165 162 161 162 159 153 153 160 164 162 158 155 154 154 154 152 147 141 139 138 136 132 131 136 144 151 158 163 158 143 118 107 114 121 116 109 115 100 79 108 109 70 31 9 20 50 170 185 189 191 190 191 195 201 211 217 221 221 217 221 224
39 45 43 36 24 12 20 66 112 112 110 118 125 130 136 139 141 143 142 139 145 152 150 146 147 149 149 150 148 146 153 161 161 155 152 151 150 150 149 145 144 142 140 140 139 138 136 135 137 144 154 165 171 168 142 107 102 118 126 115 118 167 197 135 89 56 28 335 346 14 74 172 191 198 200 201 204 210 217 222 229 233 232 232 230
36 35 29 25 22 19 24 34 67 84 85 90 99 107 119 129 134 133 130 127 128 129 123 117 122 126 129 136 143 149 153 153 149 145 144 144 143 143 141 139 142 145 145 149 154 156 158 155 151 148 152 163 172 176 166 132 106 110 120 111 104 152 199 201 181 70 21 304 306 331 13 74 180 200 209 213 216 222 228 235 241 243 243 242 238
44 38 33 28 18 21 34 38 53 73 78 76 78 85 93 99 104 107 108 112 113 110 106 105 105 105 111 124 131 134 133 132 134 134 134 134 133 131 131 132 136 134 132 154 179 189 195 191 183 182 192 205 205 198 192 173 141 121 115 96 92 143 183 194 191 195 207 235 276 295 327 359 337 243 241 238 240 246 250 255 258 254 248 243 237
51 41 38 37 24 21 38 47 50 66 80 81 77 81 86 86 90 97 101 107 110 106 104 105 103 102 108 116 120 124 125 125 126 126 127 132 134 133 135 142 148 146 141 157 198 207 210 195 179 175 186 213 230 233 227 217 204 184 169 149 80 140 171 185 194 202 210 217 224 239 261 294 302 285 279 271 267 268 269 270 272 271 261 245 231
58 49 40 39 32 22 37 51 48 55 77 86 84 85 87 87 90 96 101 107 109 105 104 105 108 111 117 119 121 123 125 123 120 119 123 129 134 136 136 138 142 142 140 143 148 145 131 121 119 111 101 98 104 148 223 233 234 231 220 207 182 149 172 188 204 212 214 217 221 233 247 258 273 282 284 284 279 274 271 268 267 270 271 262 250
65 58 46 41 35 29 40 52 54 55 65 78 84 84 83 84 87 92 98 103 103 101 100 100 105 110 113 117 120 120 119 118 117 119 121 122 122 122 121 122 123 122 123 126 126 121 115 109 108 106 98 92 87 81 81 108 218 236 241 234 231 230 212 220 232 239 248 248 242 246 251 255 262 267 269 270 269 267 265 262 259 258 259 262 261
68 63 53 43 39 49 55 53 56 63 64 71 83 84 84 86 87 90 95 97 95 95 97 96 98 101 102 105 112 113 113 112 112 115 117 117 116 112 110 110 109 109 112 112 109 109 109 106 106 104 99 93 85 76 73 76 88 117 197 224 236 246 249 253 257 260 263 266 265 266 265 266 267 267 266 264 261 260 260 259 259 257 257 259 259
66 64 59 46 39 57 68 63 63 69 71 76 83 85 86 87 88 89 91 92 90 89 90 91 92 95 97 99 103 106 107 107 107 109 109 109 107 105 105 105 104 104 104 101 99 99 99 98 98 98 96 92 82 71 65 65 68 76 93 124 206 239 253 261 266 269 271 273 275 276 276 278 277 274 272 270 266 263 259 255 256 256 257 260 260
65 67 64 51 35 42 65 70 70 73 75 77 80 84 86 85 86 88 88 89 88 85 84 86 89 92 95 98 100 102 104 104 105 105 103 101 99 98 100 102 102 101 99 96 96 95 93 94 94 94 94 89 82 74 67 60 51 45 46 49 35 290 279 278 276 277 277 279 280 281 282 284 284 282 280 278 274 270 265 260 256 256 257 259 260
63 64 59 51 43 46 65 75 76 77 79 80 81 84 85 83 83 84 83 85 85 82 80 81 84 87 91 94 96 98 100 100 101 102 99 97 96 94 93 94 96 97 96 96 94 91 90 91 90 90 89 82 77 72 66 61 50 31 12 354 334 316 308 303 296 290 284 280 280 279 279 279 280 282 282 281 280 276 271 266 261 259 259 258 260
62 65 62 60 59 64 74 81 84 85 85 85 85 86 85 82 82 81 81 81 80 78 77 77 79 81 84 87 90 91 91 91 91 91 90 88 89 88 89 91 93 94 94 92 90 87 85 85 83 81 77 69 62 53 45 39 29 20 8 352 342 328 316 308 306 303 297 293 288 283 281 280 278 279 279 279 281 279 275 271 265 262 261 259 260
64 68 68 66 66 71 80 86 86 87 88 87 86 84 82 81 81 80 79 79 78 78 78 76 75 76 77 80 83 84 84 83 81 81 79 78 78 78 79 83 85 87 88 87 86 85 82 78 76 73 69 62 51 35 22 15 7 359 353 346 338 329 321 313 307 304 300 298 295 290 289 287 284 283 282 278 276 277 276 271 265 262 259 256 259
71 73 74 76 79 79 83 86 84 80 85 88 87 84 82 81 82 81 80 81 81 81 80 78 76 75 73 74 75 76 78 78 77 77 76 75 74 72 72 74 75 76 78 79 79 79 76 72 69 66 64 61 51 27 7 359 351 342 339 339 334 327 321 312 306 302 297 293 291 288 287 286 283 283 283 279 277 277 275 268 263 261 255 252 259
74 78 83 87 90 86 77 78 80 83 88 91 88 86 85 84 84 84 84 85 86 86 84 83 80 77 74 72 71 71 73 74 74 76 76 76 75 73 71 70 69 68 67 67 67 66 64 61 56 51 46 45 43 26 5 353 343 337 334 333 332 327 319 312 307 304 300 296 293 289 286 284 282 280 278 276 274 271 270 266 261 256 252 254 262
83 89 93 91 90 88 79 73 80 87 89 88 86 86 87 87 86 86 87 91 91 89 87 85 82 79 76 72 70 70 70 71 72 74 75 74 72 68 66 63 61 58 54 51 50 48 48 45 39 36 31 25 22 16 2 346 334 330 330 332 334 326 317 313 310 307 305 302 298 295 291 287 284 282 278 275 271 266 264 260 254 252 255 260 264
93 97 99 95 90 89 86 81 82 86 86 84 83 85 86 85 84 86 92 96 94 91 89 86 83 82 78 75 72 70 69 68 66 65 66 64 59 55 53 51 48 45 41 37 33 32 32 27 21 19 14 8 3 360 355 346 334 323 315 318 325 321 320 321 318 312 308 304 301 300 296 289 284 281 278 275 272 268 264 259 255 254 257 260 259
105 103 104 101 94 89 87 87 85 84 83 81 81 83 84 82 83 89 96 95 90 88 86 83 81 79 76 73 70 67 66 64 60 56 55 52 47 41 37 35 34 33 32 29 27 25 25 23 18 13 7 1 355 352 350 348 344 334 321 313 308 308 314 320 320 316 310 306 305 304 300 296 292 286 281 277 273 270 267 263 261 259 257 254 250
112 114 113 110 105 100 98 97 93 89 85 81 81 85 86 84 88 97 98 93 89 87 84 81 80 78 74 71 68 64 61 57 52 50 48 43 40 37 32 29 29 28 28 26 23 22 21 20 16 9 3 359 354 350 347 342 338 336 333 327 317 310 308 308 311 313 313 311 310 307 304 302 298 292 288 283 278 275 272 269 267 266 264 256 245
111 116 116 112 109 107 103 99 96 93 89 85 86 89 90 91 97 101 98 93 90 86 82 80 80 78 76 74 71 65 62 59 53 51 49 43 39 38 34 30 28 28 28 25 21 21 19 16 10 5 358 352 351 351 349 345 341 338 336 332 327 322 316 310 307 306 305 307 307 305 304 302 297 293 289 285 281 277 274 272 268 266 268 263 248
112 115 115 112 109 105 100 96 94 93 90 87 87 90 94 99 103 101 96 93 89 83 80 79 78 78 75 71 70 68 66 62 57 53 50 46 42 40 38 34 32 30 29 26 21 16 15 11 5 357 348 343 344 346 346 346 345 343 340 336 333 331 327 322 318 312 309 310 310 309 309 306 301 296 290 284 281 277 272 268 265 263 264 262 251
119 123 123 119 113 108 103 100 98 96 93 89 87 88 92 96 98 96 94 94 92 88 83 79 77 75 70 66 70 71 63 55 51 48 45 43 40 38 35 31 28 23 19 18 15 10 9 5 356 348 343 340 339 340 343 346 344 340 337 334 333 334 333 330 327 323 318 316 314 314 316 314 309 304 299 291 286 282 276 270 266 266 266 261 253
128 133 131 125 121 118 115 112 110 107 102 96 92 92 92 91 90 90 89 91 92 88 80 74 70 66 63 64 68 65 54 45 45 45 44 41 36 35 34 29 24 19 13 8 5 4 1 354 346 341 338 336 334 335 338 338 334 331 328 326 326 327 327 325 325 323 320 317 315 316 319 319 313 306 302 296 291 289 286 279 273 274 273 268 261
140 144 138 132 129 126 122 119 119 114 107 101 99 97 93 89 87 87 90 94 95 88 76 66 62 61 61 62 60 53 44 39 41 44 49 49 43 39 38 30 21 19 15 5 356 351 349 343 335 332 333 330 326 325 325 325 325 324 322 319 318 317 317 318 319 319 318 317 318 320 321 320 315 306 301 297 297 300 298 290 283 280 277 271 262
149 150 145 139 135 132 128 125 124 120 113 107 102 96 88 82 77 77 86 97 97 88 73 63 61 61 60 59 55 48 42 39 37 40 47 52 49 43 38 34 30 28 36 31 1 345 344 340 327 320 319 316 313 314 318 322 325 324 322 320 316 314 314 315 316 317 317 317 318 318 318 316 312 307 304 302 303 303 301 296 291 288 280 267 256
148 150 149 147 142 138 135 132 131 127 121 114 108 97 86 77 69 68 77 92 97 90 77 71 71 68 64 60 55 51 47 41 37 38 40 43 46 40 35 37 50 71 86 82 62 33 18 1 333 317 313 313 314 316 320 323 324 323 323 321 317 315 315 314 315 315 315 313 311 309 309 311 311 308 304 303 303 302 301 297 294 292 285 271 256